Location: Newark
(46.9000°N, 28.3500°E)
Time: 02:43:38
(UTC+00:00)

Vanguard 2 - All Passes

Search period start: 25 August 2019 00:00
Search period end: 04 September 2019 00:00
Orbit: 554 x 2938 km, 32.9° (Epoch: 24 August)

Date Brightness Start Highest point End Pass type
(mag) Time Alt. Az. Time Alt. Az. Time Alt. Az.
25 Aug - 10:22:56 10° SSW 10:27:19 21° SSE 10:33:18 10° ESE daylight
25 Aug - 12:28:53 10° WSW 12:35:13 32° S 12:44:50 10° ESE daylight
25 Aug - 14:36:40 10° WSW 14:44:13 26° SSW 14:54:51 10° SSE daylight
25 Aug - 16:48:38 10° SW 16:53:42 13° SSW 16:59:29 10° S daylight
26 Aug - 10:40:17 10° SW 10:44:52 24° SSE 10:51:21 10° ESE daylight
26 Aug - 12:46:41 10° WSW 12:52:58 30° S 13:02:23 10° SE daylight
26 Aug - 14:55:03 10° WSW 15:02:01 22° SSW 15:11:22 10° SSE daylight
27 Aug - 08:54:01 10° SSE 08:55:21 11° SSE 08:56:47 10° SE daylight
27 Aug - 10:57:47 10° SW 11:02:31 25° SSE 11:09:16 10° ESE daylight
27 Aug - 13:04:38 10° WSW 13:10:46 27° S 13:19:43 10° SE daylight
27 Aug - 15:13:55 10° WSW 15:19:49 17° SSW 15:27:15 10° S daylight
28 Aug - 09:10:16 10° S 09:12:49 14° SSE 09:15:49 10° SE daylight
28 Aug - 11:15:26 10° SW 11:20:12 25° S 11:27:02 10° ESE daylight
28 Aug - 13:22:44 10° WSW 13:28:34 23° SSW 13:36:46 10° SSE daylight
28 Aug - 15:33:59 10° SW 15:37:37 12° SSW 15:41:45 10° S daylight
29 Aug - 09:27:17 10° SSW 09:30:21 17° SSE 09:34:08 10° ESE daylight
29 Aug - 11:33:12 10° SW 11:37:56 24° S 11:44:37 10° SE daylight
29 Aug - 13:41:07 10° WSW 13:46:23 19° SSW 13:53:24 10° SSE daylight
30 Aug - 09:44:38 10° SSW 09:47:58 18° SSE 09:52:10 10° SE daylight
30 Aug - 11:51:07 10° SW 11:55:41 22° S 12:02:02 10° SE daylight
30 Aug - 14:00:02 10° SW 14:04:12 14° SSW 14:09:20 10° S daylight
31 Aug - 10:02:12 10° SW 10:05:37 19° S 10:10:00 10° SE daylight
31 Aug - 12:09:14 10° SW 12:13:29 19° S 12:19:08 10° SSE daylight
01 Sep - 08:14:47 10° S 08:16:01 11° SSE 08:17:19 10° SE daylight
01 Sep - 10:19:56 10° SW 10:23:19 19° S 10:27:38 10° SE daylight
01 Sep - 12:27:41 10° SW 12:31:16 15° SSW 12:35:46 10° SSE daylight
02 Sep - 08:31:39 10° SSW 08:33:37 13° SSE 08:35:47 10° SE daylight
02 Sep - 10:37:51 10° SW 10:41:03 17° S 10:45:03 10° SE daylight
02 Sep - 12:47:02 10° SW 12:49:05 11° SSW 12:51:22 10° S daylight
03 Sep - 08:49:02 10° SSW 08:51:16 14° S 08:53:46 10° SE daylight
03 Sep - 10:56:02 10° SW 10:58:47 14° S 11:02:08 10° SSE daylight
